This is the latest recevied weather packets stored in our database for station/object wb2ifs-13. If no packets are shown the sender has not sent any weather packets the latest 10 day(s).
| Time | Temp. | Humidity | Pressure | Rain* | Wind** | Luminosity | Snow |
|---|---|---|---|---|---|---|---|
| 1777999499 | 27.78° C | 40% | 1012.7 hPa | 0 mm | - | - | - |
| 1777998599 | 27.22° C | 41% | 1013.3 hPa | 0 mm | - | - | - |
| 1777997699 | 26.67° C | 45% | 1013.3 hPa | 0 mm | - | - | - |
| 1777996800 | 26.67° C | 45% | 1013.4 hPa | 0 mm | - | - | - |
| 1777995899 | 26.11° C | 48% | 1013.5 hPa | 0 mm | - | - | - |
| 1777995000 | 25.56° C | 48% | 1013.5 hPa | 0 mm | - | - | - |
| 1777994101 | 25° C | 48% | 1013.5 hPa | 0 mm | - | - | - |
| 1777993203 | 24.44° C | 50% | 1013.5 hPa | 0 mm | - | - | - |
| 1777992299 | 23.89° C | 50% | 1013.6 hPa | 0 mm | - | - | - |
| 1777991399 | 23.33° C | 51% | 1013.5 hPa | 0 mm | - | - | - |
| 1777990499 | 22.78° C | 54% | 1013.5 hPa | 0 mm | - | - | - |
| 1777989601 | 21.67° C | 55% | 1013.5 hPa | 0 mm | - | - | - |
| 1777988698 | 21.11° C | 56% | 1013.5 hPa | 0 mm | - | - | - |
| 1777987802 | 20.56° C | 58% | 1013.7 hPa | 0 mm | - | - | - |
| 1777986899 | 20° C | 58% | 1014 hPa | 0 mm | - | - | - |
| 1777985999 | 19.44° C | 61% | 1013.9 hPa | 0 mm | - | - | - |
| 1777985098 | 18.89° C | 62% | 1013.9 hPa | 0 mm | - | - | - |
| 1777984199 | 18.33° C | 63% | 1013.8 hPa | 0 mm | - | - | - |
| 1777983299 | 17.78° C | 64% | 1013.8 hPa | 0 mm | - | - | - |
| 1777982400 | 17.22° C | 64% | 1013.7 hPa | 0 mm | - | - | - |
| 1777981500 | 17.22° C | 65% | 1013.7 hPa | 0 mm | - | - | - |
| 1777980598 | 16.67° C | 65% | 1013.4 hPa | 0 mm | - | - | - |
| 1777979699 | 16.67° C | 65% | 1013.3 hPa | 0 mm | - | - | - |
| 1777978800 | 16.11° C | 65% | 1013.2 hPa | 0 mm | - | - | - |
| 1777977899 | 16.11° C | 65% | 1013.1 hPa | 0 mm | - | - | - |
* Rain latest hour (hover to see other rain measurements)
** Current wind speed in m/s (hover to see current wind gust speed)